Dewpoint
74 71 70 71 71 70 68 69 73 75 76 76 76 77 78 78 76 74 76 74 75 70
74 74 71 73 74 70 73 71 73 74 75 77 74 75 77 76 72 72 71 70 71 70
71 73 73 73 74 75 74 75 76 76 76 77 76 75 75 71 69 72 69 68 71 70
69 71 72 72 73 75 75 77 77 77 76 75 74 74 73 72 72 72 71 70 70 71
73 74 72 74 74 74 75 74 74 74 73 73 72 72 71 70 70 69 69 70 70 70
73 72 71 71 72 71 71 71 71 71 72 71 71 70 70 71 70 70 70 70 70 70
71 70 70 69 69 68 68 69 69 70 69 68 68 68 70 70 70 70 70 70 70 70
68 68 68 67 67 67 66 66 67 66 65 65 64 63 68 67 66 66 65 66 67 67
67 66 65 66 65 65 64 65 64 64 63 63 61 62 63 64 63 64 63 62 62 63
66 65 65 65 65 64 64 64 63 63 64 63 62 60 62 63 62 61 61 61 62 61
66 66 67 66 65 64 63 63 63 62 62 61 59 59 60 62 61 61 60 60 60 60
66 66 66 65 64 62 62 61 61 61 62 61 60 58 58 60 58 58 59 59 60 59
66 66 64 64 63 63 62 61 60 62 62 61 61 57 57 59 55 58 56 60 61 59
65 65 65 64 64 63 62 62 61 61 61 60 60 59 56 57 59 55 55 55 56 57
Lifted_Index
-6 -6 -6 -6 -6 -6 -6 -6 -7 -7 -8 -7 -7 -7 -7 -6 -6 -6 -5 -4 -4 -3
-6 -6 -6 -6 -7 -7 -7 -7 -7 -7 -7 -7 -7 -6 -6 -6 -5 -5 -4 -3 -3 -3
-6 -6 -6 -7 -7 -7 -7 -7 -7 -7 -7 -7 -6 -6 -5 -4 -4 -3 -3 -2 -2 -2
-6 -6 -6 -7 -7 -7 -7 -7 -6 -6 -6 -5 -5 -4 -4 -3 -3 -2 -2 -2 -2 -2
-6 -6 -6 -6 -6 -5 -5 -5 -4 -4 -3 -3 -3 -3 -3 -3 -2 -2 -1 -1 -1 -2
-5 -5 -5 -4 -4 -3 -3 -2 -2 -1 -1 -1 -0 -1 -1 -2 -2 -1 -1 -1 -1 -2
-4 -4 -3 -2 -1 -0 0 1 1 1 2 2 2 1 0 -0 -1 -1 -1 -1 -1 -1
-2 -2 -0 1 2 3 3 3 3 4 4 4 4 3 2 1 0 0 0 0 0 0
1 2 3 3 4 4 5 5 5 5 5 6 6 5 4 3 2 2 2 2 2 2
3 3 4 4 5 5 6 6 6 6 6 7 7 6 5 4 4 4 3 3 3 3
3 3 4 4 5 5 6 6 6 6 6 7 7 7 6 5 4 4 5 5 5 5
3 3 4 4 5 5 6 6 6 5 5 6 7 7 6 5 5 5 5 5 6 6
4 4 4 5 5 6 6 5 5 5 5 6 6 7 7 5 5 5 5 5 6 6
4 4 5 5 6 6 6 5 5 5 6 6 7 7 7 6 5 5 5 5 6 7